ELECTRON KICK STAGE R/B

Satellite information

Favourite Embed

Satellite Type and Status

ROCKET BODYIN ORBIT

Key statistics

Satellite ELECTRON KICK STAGE R/B at a glance.

Uptime

1132

Days in orbit

Revolutions

≈ 14.9

Per day

Orbit

LEO

Low Earth Orbit

Inclination

70.0

Latest

Satellite identification and parameters

Extended collection of information and parameters for ELECTRON KICK STAGE R/B.

Object identification

Identified? True

Debris? False

Object name: ELECTRON KICK STAGE R/B

International designator: 2022-091C

Object number (NORAD): 53354

Object ID (CCSDS): 53354

Country: UNITED STATES OF AMERICA (US)

Current information (Y/N): Y

RCS size: MEDIUM

Orbital parameters

Period: 96.654 minutes

Inclination: 70.0027 deg

SMA: 6976.558 km

Apoapsis: 601.797 km

Periapsis: 595.048 km

RAAN: 107.0486 deg

Eccentricy: 0.00048372

Argument of periapsis: 211.3857 deg

Mean anomaly: 148.7009 deg

Mean motion: 14.89844673 rev/day

Mean motion (dot): 0.00004033 rev/day2

B* drag term: 0.00042775988 1/REarth

Two-line elements (TLE)

Creation date: Sept. 8, 2025, 6:18 p.m.

Reference frame: TEME

Reference center: EARTH

Epoch: Sept. 8, 2025, 12:18 p.m. UTC

TLE line 0: 0 ELECTRON KICK STAGE R/B

TLE line 1: 1 53354U 22091C 25251.51315591 .00004033 00000-0 42776-3 0 9998

TLE line 2: 2 53354 70.0027 107.0486 0004837 211.3857 148.7009 14.89844673 72386

Live tracking on map

Real-time ground track for satellite ELECTRON KICK STAGE R/B.

In-orbit conjunctions

A list of the most updated potential collisions computed for object ELECTRON KICK STAGE R/B.

Target Orbit TCA Probability of collision Miss distance Type
ELECTRON KICK STAGE R/B LEO 2025-02-11 23:27:02 0.006921435 17.0 (m) ROCKET BODY
DELTA 1 DEB SSO 2024-10-31 16:29:49 0.0001450969 791.0 (m) DEBRIS

Associated space launch

Classified payload for the US National Reconnaissance Office (NRO).

ELECTRON KICK STAGE R/B was lifted into orbit during the mission ‘Electron | Antipodean Adventure (NROL-199)’, on board a Electron space rocket.

The launch took place on Aug. 4, 2022, 5 a.m. from Rocket Lab Launch Complex 1B.

For more information about the launch, click the button.

Launch to space Electron | Antipodean Adventure (NROL-199)
Electron | Antipodean Adventure (NROL-199)

Agency: National Reconnaissance Office

Status: Launch Successful

Launch date: Aug. 4, 2022, 5 a.m. UTC

Rocket: Electron

Launch pad: Rocket Lab Launch Complex 1B

Location: Rocket Lab Launch Complex 1, Mahia Peninsula, New Zealand

...

Latest news about this satellite

News about space launch
Rocket Lab launches first of two back-to-back missions for NRO

Rocket Lab launched its 28th Electron rocket on the “Wise One Looks Ahead” mission, also designated National Reconnaissance Office Launch (NROL)-162. NROL-162 is the first of two back-to-back Electron missions for the National Reconnaissance Office (NRO)....

News about space launch
Rocket Lab’s Electron to launch NROL-199 mission

Rocket Lab is scheduled to launch the 29th Electron mission on August 2 at 05:00 UTC. NROL-199 will launch from Launch Complex-1B (LC-1B) at Rocket Lab’s launch facility on the Māhia Peninsula in New Zealand.

News about space launch
Rocket Lab launches top secret payload for U.S. spy satellite agency

Flying the second of back-to-back launches for the National Reconnaissance Office, Rocket Lab placed a classified U.S. government payload into orbit Thursday after a liftoff from New Zealand. It was the third Electron rocket flight in less than six weeks,...


Newsletter sign-up

Weekly statistics, charts and insights to help you stay on top of the space industry.